Location: Izdebno
(52.6670°N, 16.2170°E)
Time: 07:04:02
(UTC+02:00)

Vanguard 2 Rocket - Pass Details

Date: 23 February 2024
Orbit: 555 x 3307 km, 32.9° (Epoch: 24 April)

Event Time Altitude Azimuth Distance (km) Brightness Sun altitude
Rises 21:04:14 0° 268° (W) 6,548 12.0 -33.4°
Reaches altitude 10° 21:10:32 10° 253° (WSW) 5,899 11.4 -34.2°
Maximum altitude 21:21:00 18° 219° (SW) 5,552 10.8 -35.5°
Enters shadow 21:32:01 10° 185° (S) 6,185 10.8 -36.8°
Drops below altitude 10° 21:32:01 10° 185° (S) 6,187 - -36.8°
Sets 21:39:05 0° 169° (S) 6,972 - -37.6°
